This is the latest recevied weather packets stored in our database for station/object OZ7MKS. If no packets are shown the sender has not sent any weather packets the latest 10 day(s).
| Time | Temp. | Humidity | Pressure | Rain* | Wind** | Luminosity | Snow |
|---|---|---|---|---|---|---|---|
| 1777611004 | 3.89° C | 91% | 1028.9 hPa | 0 mm | - | - | - |
| 1777609804 | 3.33° C | 91% | 1029 hPa | 0 mm | - | - | - |
| 1777608903 | 2.78° C | 91% | 1028.9 hPa | 0 mm | - | - | - |
| 1777607104 | 2.78° C | 91% | 1028.9 hPa | 0 mm | - | - | - |
| 1777606204 | 2.78° C | 90% | 1029 hPa | 0 mm | - | - | - |
| 1777604404 | 2.78° C | 91% | 1029.1 hPa | 0 mm | - | - | - |
| 1777604104 | 2.78° C | 90% | 1029.2 hPa | 0 mm | - | - | - |
| 1777603504 | 2.78° C | 91% | 1029.3 hPa | 0 mm | - | - | - |
| 1777602004 | 2.78° C | 91% | 1029.4 hPa | 0 mm | - | - | - |
| 1777600504 | 2.78° C | 90% | 1029.5 hPa | 0 mm | - | - | - |
| 1777599304 | 3.33° C | 89% | 1029.5 hPa | 0 mm | - | - | - |
| 1777598104 | 3.89° C | 90% | 1029.7 hPa | 0 mm | - | - | - |
| 1777596604 | 3.89° C | 90% | 1029.7 hPa | 0 mm | - | - | - |
| 1777596004 | 3.89° C | 89% | 1029.7 hPa | 0 mm | - | - | - |
| 1777593304 | 3.89° C | 89% | 1029.8 hPa | 0 mm | - | - | - |
| 1777591503 | 4.44° C | 88% | 1029.9 hPa | 0 mm | - | - | - |
| 1777590904 | 4.44° C | 88% | 1030 hPa | 0 mm | - | - | - |
| 1777590304 | 4.44° C | 87% | 1030.1 hPa | 0 mm | - | - | - |
| 1777589704 | 4.44° C | 86% | 1030.2 hPa | 0 mm | - | - | - |
| 1777588504 | 5° C | 86% | 1030.1 hPa | 0 mm | - | - | - |
| 1777588204 | 5.56° C | 85% | 1030.1 hPa | 0 mm | - | - | - |
| 1777585504 | 5.56° C | 85% | 1030.2 hPa | 0 mm | - | - | - |
| 1777584904 | 5.56° C | 84% | 1030.3 hPa | 0 mm | - | - | - |
| 1777583105 | 6.11° C | 83% | 1030.3 hPa | 0 mm | - | - | - |
| 1777582804 | 6.11° C | 82% | 1030.4 hPa | 0 mm | - | - | - |
* Rain latest hour (hover to see other rain measurements)
** Current wind speed in m/s (hover to see current wind gust speed)